Terug naar catalogus

FENGYUN 1C DEB

ActiefSSO
NORAD 31737·DEBRIS·🇨🇳 China

Gelanceerd May 10, 1999 vanaf Taiyuan Satellite Launch Center

Loading…

Volgende Passages (komende 24 uur)

TLE

VersSource: Space-Track

Epoch: Sep 13, 2026, 13:35 UTC

1 31737U 99025CEL 26256.56659249  .00001672  00000-0  24252-3 0  9997
2 31737  97.8900 286.4876 0143172 216.8538 296.1883 14.70618845 22373

Volg FENGYUN 1C DEB in realtime met AllMySat

Download on the App Store